#timestamp,LO_Frequency,Hit,StdDev 
1570921215.4,286047000.0,N
1570921235.3,286046998.2,N
1570921255.1,286047000.7,N
1570921275.9,286047001.1,N
1570921295.7,286047000.0,N
1570921315.5,286047002.6,N
1570921335.4,286047000.0,N
1570921355.2,286046998.5,N
1570921375.0,286046998.5,N
1570921376.0,286046998.5,N
1570921395.8,286046998.5,N
1570921415.6,286047000.8,N
1570921435.5,286047001.1,N
1570921455.3,286046998.6,N
1570921475.1,286047001.1,N
1570921495.9,286047001.0,N
1570921515.7,286047000.9,N
1570921535.6,286046998.9,N
1570921555.4,286046999.5,N
1570921575.2,286046997.1,N
1570921595.1,286046997.7,N
1570921596.0,286046997.7,N
1570921615.8,286046997.4,N
1570921635.6,286046997.7,N
1570921655.5,286046997.9,N
1570921675.3,286046996.2,N
1570921695.2,286046995.0,Y
1570921715.0,286046997.7,P
1570921715.9,286046997.7,P
1570921735.7,286046996.9,P
1570921755.6,286046997.1,Y
1570921775.4,286046998.8,P
1570921795.3,286046999.5,N
1570921815.1,286046997.0,P
1570921835.8,286046999.3,N
1570921855.7,286046999.5,N
1570921875.5,286046996.9,Y
1570921895.4,286046997.6,P
1570921915.2,286046998.0,P
1570921935.0,286046997.7,P
1570921935.9,286046997.7,Y
1570921955.8,286046996.6,P
1570921975.6,286046999.0,N
1570921995.5,286046999.6,N
1570922015.3,286046997.8,N
1570922035.1,286046998.0,N
1570922055.9,286046997.5,N
1570922075.7,286046996.9,Y
1570922095.5,286047000.7,P
1570922115.4,286047002.7,N
1570922135.2,286047003.5,N
1570922155.1,286047003.2,N
1570922156.0,286047003.2,N
1570922175.8,286047002.6,N
1570922195.6,286047004.4,N
1570922215.5,286047003.9,N
1570922235.3,286047004.3,N
1570922255.2,286047001.4,N
1570922275.9,286047002.7,N
1570922295.7,286047000.6,N
1570922315.6,286047001.1,N
1570922335.4,286046998.4,N
1570922355.2,286047000.2,N
1570922375.1,286047001.3,N
1570922406.0,286047000.3,E
1570922415.0,286047002.8,N
1570922415.9,286047002.8,P
1570922435.8,286046999.4,P
1570922455.6,286046998.6,N
1570922475.5,286046998.1,N
1570922495.3,286046997.1,N
1570922515.1,286046996.8,N
1570922535.9,286046997.0,N
1570922555.7,286046997.9,N
1570922575.6,286046997.9,N
1570922595.4,286046995.7,N
1570922615.2,286046997.3,N
1570922635.1,286046996.9,N
1570922636.0,286046996.9,N
1570922655.8,286046998.7,N
1570922675.6,286046996.5,N
1570922695.5,286046998.1,N
1570922715.3,286047000.4,N
1570922735.2,286047001.0,N
1570922755.9,286047000.5,N
1570922775.7,286047001.0,N
1570922795.6,286047000.7,N
1570922815.4,286046998.4,N
1570922835.2,286046999.3,N
1570922855.1,286046998.4,N
1570922856.0,286046998.4,N
1570922875.8,286046999.4,N
1570922895.7,286046999.0,N
1570922915.5,286046995.0,N
1570922935.3,286046997.6,N
1570922955.2,286046999.6,N
1570922975.0,286046999.1,N
1570922975.9,286046999.1,N
1570922995.8,286046997.7,N
1570923015.6,286046994.9,Y
1570923035.4,286046996.5,P
1570923055.3,286046996.6,P
1570923075.1,286046996.6,P
1570923095.9,286046998.2,N
1570923115.7,286046998.3,N
1570923135.5,286046998.5,N
1570923155.4,286047001.2,N
1570923175.2,286047001.6,N
1570923195.0,286047001.7,N
1570923196.0,286047001.7,N
1570923215.8,286047001.8,N
1570923235.6,286047002.5,N
1570923255.5,286047004.1,N
1570923275.3,286047004.3,N
1570923295.1,286047004.7,N
1570923315.9,286047005.2,N
1570923335.7,286047007.6,N
1570923355.6,286047007.0,N
1570923375.4,286047008.7,N
1570923395.2,286047005.9,N
1570923415.1,286047005.8,N
1570923416.0,286047005.8,N
1570923435.8,286047003.7,N
1570923455.6,286047002.3,N
1570923475.5,286047003.8,N
1570923495.3,286047006.0,N
1570923515.2,286047002.6,N
1570923535.9,286047002.5,N
1570923555.7,286047004.1,N
1570923575.6,286047006.0,N
1570923595.4,286047003.8,N
1570923615.2,286047001.8,N
1570923635.1,286047002.0,N
1570923636.0,286047002.0,N
1570923655.8,286047004.0,N
1570923675.7,286047001.6,N
1570923695.5,286047002.0,N
1570923715.3,286047004.2,N
1570923735.2,286047003.1,N
1570923755.0,286047001.7,N
1570923755.9,286047001.7,N
1570923775.8,286047004.4,N
1570923795.6,286047002.5,N
1570923815.4,286046999.7,N
1570923835.3,286047002.5,N
1570923855.1,286047003.1,N
1570923875.9,286047004.5,N
1570923895.7,286047005.3,N
1570923915.5,286047007.4,Y
1570923935.4,286047001.3,P
1570923955.2,286047002.2,N
1570923975.1,286047004.2,P
1570923976.0,286047004.2,Y
1570923995.8,286046996.6,P
1570924015.7,286046995.3,N
1570924035.5,286046997.6,N
1570924055.3,286046995.4,N
1570924075.2,286046996.5,N
1570924095.0,286046998.9,N
1570924095.9,286046998.9,N
1570924115.8,286046998.1,N
1570924135.6,286046999.9,N
1570924155.4,286047002.4,N
1570924175.3,286046998.7,N
1570924195.1,286046996.5,N
1570924215.8,286046996.5,N
1570924235.7,286047000.7,N
1570924255.5,286046999.6,N
1570924275.4,286046997.4,N
1570924295.2,286046997.4,N
1570924315.0,286046995.8,N
1570924315.9,286046995.8,N
1570924335.8,286046996.1,N
1570924355.6,286046996.0,N
1570924375.5,286046993.7,N
1570924395.3,286046993.5,N
1570924415.1,286046994.2,N
1570924435.9,286046995.8,N
1570924455.7,286046997.6,N
1570924475.5,286046995.0,N
1570924495.4,286046997.9,N
1570924515.2,286046997.4,N
1570924535.1,286046997.8,N
1570924536.0,286046997.8,N
1570924555.8,286046994.9,N
1570924575.6,286046997.9,N
1570924595.5,286046993.7,Y
1570924615.3,286046997.2,P
1570924635.2,286047000.6,P
1570924655.9,286046998.7,N
1570924675.7,286046999.6,N
1570924695.6,286047000.8,N
1570924715.4,286047000.5,N
1570924735.2,286047002.5,N
1570924755.1,286046998.9,N
1570924756.0,286046998.9,N
1570924775.8,286046999.5,N
1570924795.7,286046996.6,N
